Weather History for KCWA - September, 2013

Change the Weather History Date:

Thursday, September 26, 2013

  Actual Average Record
Temperature  
Mean Temperature 56 °F -  
Max Temperature 71 °F 61 °F 80 °F (2008)
Min Temperature 41 °F 40 °F 35 °F (2006)
Degree Days  
Heating Degree Days 9    
Growing Degree Days 6 (Base 50)    
Moisture  
Dew Point 49 °F    
Average Humidity 91    
Maximum Humidity 100    
Minimum Humidity 56    
Precipitation  
Precipitation 0.00 in - - ()
Sea Level Pressure  
Sea Level Pressure 30.07 in    
Wind  
Wind Speed 4 mph (ESE)    
Max Wind Speed 13 mph    
Max Gust Speed 17 mph    
Visibility 6 miles    
Events Fog    
Averages and records for this station are not official NWS values.
T = Trace of Precipitation, MM = Missing Value Source: NWS Daily Summary

Daily Weather History Graph

Daily Weather History Graph

Search for Another Location

Airport or City:

Trip Planner

Search our weather history database for the weather conditions in past years. The results will help you decide how hot, cold, wet, or windy it might be!

Date:

Astronomy

Sep. 26, 2013 Rise Set
Actual Time 6:50 AM CDT 6:48 PM CDT
Civil Twilight 6:21 AM CDT 7:17 PM CDT
Nautical Twilight 5:47 AM CDT 7:51 PM CDT
Astronomical Twilight 5:12 AM CDT 8:25 PM CDT
Moon 11:34 PM CDT (9/26) 1:55 PM CDT (9/26)
Length of Visible Light 12h 55m
Length of Day
11h 57m
Waning Gibbous, 54% of the Moon is Illuminated
Sep 26
Waning Gibbous
Sep 26
Last Quarter
Oct 4
New
Oct 11
First Quarter
Oct 18
Full

Hourly Weather History & Observations

Time (CDT) Temp. Windchill Dew Point Humidity Pressure Visibility Wind Dir Wind Speed Gust Speed Precip Events Conditions
12:15 AM 46.4 °F - 46.4 °F 100% 30.02 in 5.0 mi Calm Calm - N/A   Clear
12:35 AM 46.4 °F - 46.4 °F 100% 30.03 in 7.0 mi Calm Calm - N/A   Clear
12:55 AM 48.2 °F - 48.2 °F 100% 30.03 in 7.0 mi Calm Calm - N/A   Clear
1:15 AM 46.4 °F 45.2 °F 46.4 °F 100% 30.04 in 7.0 mi ENE 3.5 mph - N/A   Clear
1:35 AM 46.4 °F 43.5 °F 46.4 °F 100% 30.04 in 4.0 mi East 5.8 mph - N/A   Clear
1:55 AM 46.4 °F 44.3 °F 46.4 °F 100% 30.04 in 5.0 mi East 4.6 mph - N/A   Clear
2:15 AM 44.6 °F 42.2 °F 44.6 °F 100% 30.04 in 5.0 mi East 4.6 mph - N/A   Clear
2:35 AM 44.6 °F 42.2 °F 44.6 °F 100% 30.04 in 5.0 mi East 4.6 mph - N/A   Clear
2:55 AM 44.6 °F 42.2 °F 44.6 °F 100% 30.04 in 4.0 mi East 4.6 mph - N/A   Clear
3:15 AM 44.6 °F 43.1 °F 44.6 °F 100% 30.05 in 3.0 mi East 3.5 mph - N/A   Clear
3:35 AM 44.6 °F 43.1 °F 44.6 °F 100% 30.05 in 3.0 mi East 3.5 mph - N/A   Clear
3:55 AM 44.6 °F 42.2 °F 44.6 °F 100% 30.05 in 4.0 mi East 4.6 mph - N/A   Clear
4:15 AM 42.8 °F 40.1 °F 42.8 °F 100% 30.06 in 1.5 mi East 4.6 mph - N/A   Mist
4:35 AM 42.8 °F 40.1 °F 42.8 °F 100% 30.06 in 1.2 mi East 4.6 mph - N/A   Mist
4:55 AM 41.0 °F 38.0 °F 41.0 °F 100% 30.07 in 1.5 mi East 4.6 mph - N/A   Mist
5:15 AM 41.0 °F 39.0 °F 41.0 °F 100% 30.07 in 0.2 mi ENE 3.5 mph - N/A Fog Fog
5:35 AM 42.8 °F 38.6 °F 42.8 °F 100% 30.07 in 0.2 mi East 6.9 mph - N/A   Unknown
5:45 AM 44.6 °F 40.7 °F 44.6 °F 100% 30.07 in 0.1 mi East 6.9 mph - N/A Fog Fog
6:15 AM 44.6 °F 41.4 °F 44.6 °F 100% 30.07 in 0.2 mi East 5.8 mph - N/A Fog Fog
6:53 AM 46.4 °F 43.5 °F 46.4 °F 100% 30.07 in 0.2 mi East 5.8 mph - N/A Fog Fog
7:06 AM 46.4 °F 43.5 °F 46.4 °F 100% 30.08 in 0.1 mi East 5.8 mph - N/A Fog Fog
7:47 AM 46.4 °F 45.2 °F 46.4 °F 100% 30.08 in 0.2 mi ESE 3.5 mph - N/A Fog Fog
8:06 AM 48.2 °F - 48.2 °F 100% 30.09 in 0.8 mi Calm Calm - N/A   Overcast
8:30 AM 48.2 °F - 48.2 °F 100% 30.09 in 0.2 mi ESE 4.6 mph - N/A Fog Fog
8:47 AM 48.2 °F - 48.2 °F 100% 30.09 in 1.5 mi ESE 5.8 mph - N/A   Mostly Cloudy
9:20 AM 51.8 °F - 51.8 °F 100% 30.09 in 10.0 mi ESE 4.6 mph - N/A   Scattered Clouds
9:45 AM 53.6 °F - 53.6 °F 100% 30.10 in 7.0 mi SE 5.8 mph - N/A   Mostly Cloudy
10:53 AM 55.4 °F - 55.4 °F 100% 30.10 in 10.0 mi SE 6.9 mph - N/A   Mostly Cloudy
11:30 AM 60.8 °F - 57.2 °F 88% 30.09 in 10.0 mi SSE 10.4 mph - N/A   Scattered Clouds
11:52 AM 62.6 °F - 55.4 °F 77% 30.09 in 10.0 mi SSE 8.1 mph - N/A   Scattered Clouds
12:55 PM 66.2 °F - 55.4 °F 68% 30.08 in 10.0 mi South 9.2 mph - N/A   Clear
1:45 PM 69.8 °F - 55.4 °F 60% 30.07 in 10.0 mi SSE 12.7 mph 17.3 mph N/A   Clear
2:45 PM 71.6 °F - 55.4 °F 57% 30.06 in 10.0 mi SSE 11.5 mph - N/A   Clear
3:45 PM 71.6 °F - 57.2 °F 60% 30.05 in 10.0 mi ESE 6.9 mph - N/A   Clear
4:45 PM 71.6 °F - 55.4 °F 57% 30.04 in 10.0 mi SE 8.1 mph - N/A   Clear
5:55 PM 69.8 °F - 53.6 °F 56% 30.05 in 10.0 mi ESE 4.6 mph - N/A   Clear
6:45 PM 64.4 °F - 53.6 °F 68% 30.05 in 10.0 mi ESE 4.6 mph - N/A   Clear
7:50 PM 60.8 °F - 55.4 °F 82% 30.06 in 10.0 mi ESE 5.8 mph - N/A   Clear
8:45 PM 59.0 °F - 53.6 °F 82% 30.07 in 10.0 mi ESE 4.6 mph - N/A   Clear
9:45 PM 57.2 °F - 53.6 °F 88% 30.07 in 10.0 mi ESE 6.9 mph - N/A   Clear
10:15 PM 57.2 °F - 53.6 °F 88% 30.08 in 10.0 mi ESE 8.1 mph - N/A   Clear
10:35 PM 55.4 °F - 53.6 °F 94% 30.08 in 7.0 mi ESE 8.1 mph - N/A   Clear
10:55 PM 55.4 °F - 51.8 °F 88% 30.09 in 10.0 mi ESE 5.8 mph - N/A   Clear
11:15 PM 55.4 °F - 51.8 °F 88% 30.09 in 10.0 mi ESE 4.6 mph - N/A   Clear
11:35 PM 53.6 °F - 51.8 °F 94% 30.10 in 10.0 mi ESE 5.8 mph - N/A   Clear
11:55 PM 53.6 °F - 51.8 °F 94% 30.10 in 10.0 mi ESE 4.6 mph - N/A   Clear